Back to catalog

ONEWEB-0684

AliveCommunicationsPO
NORAD 56720·PAYLOAD·🇬🇧 United Kingdom

Launched May 20, 2023 from Vandenberg Space Force Base

Loading…

Next Passes (next 24 hours)

TLE

FreshSource: CelesTrak SupGP

Epoch: Sep 14, 2026, 12:40 UTC

1 56720C 23068L   26257.52830278 -.00001221  00000+0 -32475-2 0  2573
2 56720  87.8980 241.3737 0002291  51.6573  50.4314 13.15547998    10

Track ONEWEB-0684 in real time with AllMySat

Download on the App Store